F4GCF-13 Weather Reports


time (UTC)temp
F
wind
direction
speed
knots
gust
knots
rain 1hr
in
rain 24hr
in
rain mn
in
humidity
%
barometer
mb
20260510043211 56 117 3.5 3.5 0.00 0.00 0.00 83 1010.0
20260510040712 56 79 0.0 1.7 0.00 0.00 0.00 83 1010.0
20260510035716 56 120 1.7 1.7 0.00 0.00 0.00 83 1010.0
20260510030213 56 145 1.7 2.6 0.00 0.00 0.00 80 1010.0
20260510024712 56 159 1.7 2.6 0.00 0.00 0.00 80 1010.0
20260510022713 56 165 1.7 1.7 0.00 0.00 0.00 79 1010.0
20260510020715 56 164 3.5 4.3 0.00 0.00 0.00 79 1010.0
20260510014713 56 168 1.7 3.5 0.00 0.00 0.00 76 1011.0
20260510013712 56 161 0.9 1.7 0.00 0.00 0.00 77 1011.0
20260510013214 56 155 1.7 0.9 0.00 0.00 0.00 77 1011.0
20260510012714 56 161 2.6 3.5 0.00 0.00 0.00 77 1011.0
20260510005747 56 145 2.6 2.6 0.00 0.00 0.00 76 1011.0
20260510005712 56 145 2.6 2.6 0.00 0.00 0.00 76 1011.0
20260510003713 56 158 1.7 2.6 0.00 0.00 0.00 77 1011.0
20260509232713 57 153 2.6 1.7 0.00 0.00 0.00 76 1011.0
20260509231713 56 110 1.7 2.6 0.00 0.00 0.00 76 1011.0
20260509223713 56 160 0.0 0.0 0.00 0.00 0.00 74 1011.0
20260509222756 57 302 0.0 0.0 0.00 0.00 0.00 73 1011.0
20260509222712 57 302 0.0 0.0 0.00 0.00 0.00 73 1011.0
20260509215712 58 161 0.0 0.0 0.00 0.00 0.00 69 1011.0
20260509213712 58 223 0.9 1.7 0.00 0.00 0.00 68 1012.0
20260509211713 60 182 0.9 0.9 0.00 0.00 0.00 66 1012.0
20260509204714 60 166 1.7 1.7 0.00 0.00 0.00 66 1012.0
20260509203713 61 163 2.6 2.6 0.00 0.00 0.00 66 1011.0
20260509202714 61 158 2.6 2.6 0.00 0.00 0.00 66 1011.0
20260509202214 61 128 2.6 3.5 0.00 0.00 0.00 66 1011.0
20260509201213 62 128 3.5 4.3 0.00 0.00 0.00 66 1011.0
20260509200713 62 109 5.2 5.2 0.00 0.00 0.00 65 1011.0
20260509195712 62 135 5.2 7.0 0.00 0.00 0.00 67 1011.0
20260509194715 62 102 4.3 5.2 0.00 0.00 0.00 69 1011.0
20260509193713 62 93 4.3 5.2 0.00 0.00 0.00 68 1010.0
20260509193215 62 112 2.6 3.5 0.00 0.00 0.00 68 1010.0
20260509192712 63 112 1.7 2.6 0.00 0.00 0.00 67 1010.0
20260509185214 64 67 4.3 5.2 0.00 0.00 0.00 66 1010.0
20260509175714 66 112 6.1 7.0 0.00 0.00 0.00 61 1009.0
20260509174751 67 109 7.0 7.0 0.00 0.00 0.00 60 1009.0
20260509174212 67 109 7.0 7.0 0.00 0.00 0.00 60 1009.0
20260509173713 67 88 8.7 10.4 0.00 0.00 0.00 58 1009.0
20260509172839 68 142 9.6 12.2 0.00 0.00 0.00 56 1009.0
20260509172713 67 118 7.8 8.7 0.00 0.00 0.00 58 1009.0
20260509171713 68 142 9.6 12.2 0.00 0.00 0.00 56 1009.0
20260509171215 68 130 8.7 11.3 0.00 0.00 0.00 56 1009.0
20260509170752 68 125 9.6 11.3 0.00 0.00 0.00 56 1009.0
20260509170712 68 125 9.6 11.3 0.00 0.00 0.00 56 1009.0
20260509165712 69 90 9.6 12.2 0.00 0.00 0.00 53 1009.0
20260509165212 69 113 8.7 10.4 0.00 0.00 0.00 53 1009.0
20260509165030 70 109 10.4 13.9 0.00 0.00 0.00 52 1009.0
20260509164717 69 112 8.7 9.6 0.00 0.00 0.00 52 1009.0
20260509164213 70 114 11.3 11.3 0.00 0.00 0.00 52 1009.0
20260509163712 70 109 10.4 13.9 0.00 0.00 0.00 52 1009.0
20260509163212 70 109 12.2 14.8 0.00 0.00 0.00 51 1009.0
20260509162713 71 124 8.7 15.6 0.00 0.00 0.00 50 1009.0
20260509162213 71 76 10.4 14.8 0.00 0.00 0.00 51 1009.0
20260509161714 71 122 10.4 12.2 0.00 0.00 0.00 51 1009.0
20260509161213 71 93 12.2 12.2 0.00 0.00 0.00 51 1009.0
20260509160743 71 96 8.7 12.2 0.00 0.00 0.00 51 1009.0
20260509160712 71 96 8.7 12.2 0.00 0.00 0.00 51 1009.0
20260509160212 71 85 12.2 12.2 0.00 0.00 0.00 50 1009.0
20260509155713 71 150 9.6 13.0 0.00 0.00 0.00 49 1009.0
20260509155212 71 105 7.0 8.7 0.00 0.00 0.00 52 1009.0
20260509154713 71 98 9.6 10.4 0.00 0.00 0.00 52 1009.0
20260509154212 71 91 9.6 8.7 0.00 0.00 0.00 49 1009.0
20260509153712 71 105 8.7 9.6 0.00 0.00 0.00 50 1009.0
20260509152713 71 120 8.7 13.0 0.00 0.00 0.00 50 1009.0
20260509151712 71 112 12.2 13.0 0.00 0.00 0.00 52 1009.0
20260509151213 71 130 9.6 11.3 0.00 0.00 0.00 50 1009.0
20260509150713 71 108 7.8 9.6 0.00 0.00 0.00 50 1010.0
20260509150215 71 112 7.8 11.3 0.00 0.00 0.00 51 1010.0
20260509145713 72 112 7.8 11.3 0.00 0.00 0.00 50 1010.0
20260509144713 72 112 7.8 8.7 0.00 0.00 0.00 50 1010.0
20260509143711 71 91 7.8 11.3 0.00 0.00 0.00 53 1010.0
20260509143244 72 109 7.8 9.6 0.00 0.00 0.00 51 1010.0
20260509143213 72 109 7.8 9.6 0.00 0.00 0.00 51 1010.0
20260509142714 72 136 8.7 7.8 0.00 0.00 0.00 50 1010.0
20260509141712 72 103 8.7 10.4 0.00 0.00 0.00 52 1009.0
20260509141212 72 131 9.6 14.8 0.00 0.00 0.00 53 1009.0
20260509140713 72 112 8.7 9.6 0.00 0.00 0.00 52 1010.0
20260509135712 72 114 8.7 10.4 0.00 0.00 0.00 52 1010.0
20260509134213 72 117 5.2 7.0 0.00 0.00 0.00 54 1009.0
20260509133713 71 94 6.1 8.7 0.00 0.00 0.00 55 1010.0
20260509132712 71 97 6.1 6.1 0.00 0.00 0.00 54 1010.0
20260509131713 71 115 8.7 9.6 0.00 0.00 0.00 54 1010.0
20260509131213 71 102 7.0 8.7 0.00 0.00 0.00 55 1010.0
20260509130712 71 101 6.1 7.8 0.00 0.00 0.00 57 1011.0
20260509125713 71 103 6.1 7.0 0.00 0.00 0.00 56 1011.0
20260509124712 71 117 7.0 11.3 0.00 0.00 0.00 55 1010.0
20260509124353 71 99 8.7 8.7 0.00 0.00 0.00 57 1010.0
20260509124213 71 99 8.7 8.7 0.00 0.00 0.00 57 1010.0
20260509123712 71 96 7.0 10.4 0.00 0.00 0.00 56 1011.0
20260509122712 71 110 6.1 7.8 0.00 0.00 0.00 58 1011.0
20260509122218 71 106 6.1 5.2 0.00 0.00 0.00 58 1011.0
20260509121713 70 107 7.0 8.7 0.00 0.00 0.00 57 1011.0
20260509120713 71 87 6.1 7.8 0.00 0.00 0.00 56 1011.0
20260509115213 71 80 8.7 8.7 0.00 0.00 0.00 58 1011.0
20260509114224 70 81 7.0 9.6 0.00 0.00 0.00 56 1011.0
20260509113713 70 112 6.1 6.1 0.00 0.00 0.00 56 1011.0
20260509113214 71 135 7.0 8.7 0.00 0.00 0.00 56 1011.0
20260509112714 71 109 6.1 8.7 0.00 0.00 0.00 56 1011.0
20260509111711 70 99 7.8 9.6 0.00 0.00 0.00 57 1012.0
20260509105712 71 156 6.1 6.1 0.00 0.00 0.00 59 1013.0
20260509104715 70 98 7.0 7.8 0.00 0.00 0.00 61 1012.0
20260509103715 70 113 7.8 8.7 0.00 0.00 0.00 60 1012.0
20260509102712 69 113 6.1 7.8 0.00 0.00 0.00 62 1012.0
20260509102331 70 93 6.1 7.8 0.00 0.00 0.00 61 1012.0
20260509102216 70 93 6.1 7.8 0.00 0.00 0.00 61 1012.0
20260509101713 69 112 7.8 10.4 0.00 0.00 0.00 65 1012.0
20260509100714 68 109 8.7 7.0 0.00 0.00 0.00 63 1012.0
20260509100556 68 88 6.1 7.8 0.00 0.00 0.00 64 1012.0
20260509100214 68 88 6.1 7.8 0.00 0.00 0.00 64 1012.0
20260509095713 68 149 6.1 7.0 0.00 0.00 0.00 64 1012.0
20260509094712 67 160 4.3 5.2 0.00 0.00 0.00 65 1012.0
20260509093713 67 110 5.2 7.8 0.00 0.00 0.00 66 1012.0
20260509093213 67 142 6.1 7.8 0.00 0.00 0.00 65 1012.0
20260509092713 67 149 6.1 7.0 0.00 0.00 0.00 66 1012.0
20260509091712 67 112 4.3 7.0 0.00 0.00 0.00 68 1012.0
20260509091214 67 123 7.8 7.0 0.00 0.00 0.00 67 1012.0
20260509090713 66 129 6.1 7.8 0.00 0.00 0.00 69 1012.0
20260509090213 66 134 6.1 8.7 0.00 0.00 0.00 69 1012.0
20260509085712 66 168 6.1 7.8 0.00 0.00 0.00 70 1012.0
20260509085212 66 93 5.2 7.8 0.00 0.00 0.00 71 1013.0
20260509084712 66 158 3.5 5.2 0.00 0.00 0.00 72 1013.0
20260509083213 65 85 6.1 7.0 0.00 0.00 0.00 73 1013.0
20260509082712 65 96 7.8 9.6 0.00 0.00 0.00 74 1013.0
20260509082212 65 102 7.0 7.8 0.00 0.00 0.00 75 1013.0
20260509081712 64 130 7.0 9.6 0.00 0.00 0.00 77 1013.0
20260509080713 63 124 8.7 9.6 0.00 0.00 0.00 77 1013.0
20260509075213 63 103 6.1 7.0 0.00 0.00 0.00 81 1013.0
20260509074711 62 96 6.1 9.6 0.00 0.00 0.00 82 1013.0
20260509074213 62 90 7.8 7.8 0.00 0.00 0.00 82 1013.0
20260509073713 62 77 9.6 11.3 0.00 0.00 0.00 82 1012.0
20260509073213 62 109 7.0 7.8 0.00 0.00 0.00 84 1012.0
20260509072712 61 79 7.8 8.7 0.00 0.00 0.00 85 1012.0
20260509072211 61 123 7.8 10.4 0.00 0.00 0.00 87 1013.0
20260509070712 60 119 6.1 8.7 0.00 0.00 0.00 91 1013.0
20260509070212 60 107 6.1 7.0 0.00 0.00 0.00 92 1013.0
20260509065712 59 84 5.2 6.1 0.00 0.00 0.00 93 1013.0
20260509065214 58 131 6.1 8.7 0.00 0.00 0.00 94 1014.0
20260509064713 58 77 5.2 6.1 0.00 0.00 0.00 94 1014.0
20260509064212 58 110 6.1 7.0 0.00 0.00 0.00 94 1014.0
20260509063713 58 97 6.1 7.8 0.00 0.00 0.00 95 1013.0
20260509063212 57 67 7.0 6.1 0.00 0.00 0.00 95 1013.0
20260509062713 57 118 4.3 5.2 0.00 0.00 0.00 95 1013.0
20260509062212 57 112 4.3 7.0 0.00 0.00 0.00 96 1014.0
20260509062115 57 104 4.3 5.2 0.00 0.00 0.00 96 1014.0
20260509061715 57 104 4.3 5.2 0.00 0.00 0.00 96 1014.0
20260509061213 57 114 3.5 5.2 0.00 0.00 0.00 96 1014.0
20260509060712 56 92 4.3 4.3 0.00 0.00 0.00 96 1013.0
20260509055215 56 106 3.5 5.2 0.00 0.00 0.00 96 1013.0
20260509054217 55 104 3.5 4.3 0.00 0.00 0.00 96 1013.0
20260509053717 55 127 2.6 3.5 0.00 0.00 0.00 95 1013.0
20260509053214 54 103 2.6 3.5 0.00 0.00 0.00 95 1013.0
20260509052718 54 112 3.5 3.5 0.00 0.00 0.00 94 1013.0
20260509052215 54 94 2.6 3.5 0.00 0.00 0.00 94 1013.0
20260509051349 53 94 2.6 3.5 0.00 0.00 0.00 94 1013.0
20260509051216 53 94 2.6 3.5 0.00 0.00 0.00 94 1013.0
20260509050718 53 112 1.7 2.6 0.00 0.00 0.00 93 1013.0
20260509050214 53 107 1.7 1.7 0.00 0.00 0.00 93 1013.0
20260509044718 53 112 2.6 3.5 0.00 0.00 0.00 93 1013.0
20260509044215 53 125 1.7 2.6 0.00 0.00 0.00 93 1013.0
20260509043713 53 126 1.7 1.7 0.00 0.00 0.00 93 1013.0